ASH4034 KMCI-KIAD

Flight info

Callsign ASH4034
Flight time 1h 56m
Altitude 37000
Route LAKES5 COU STL J24 VHP J80 AIR MGW GIBBZ5
Aircraft E75L/M-SDE3GILORVW/S

Departure

Time 2026-05-07 15:34
Airport Kansas City International Airport (KMCI)

Arrival

Time 2026-05-07 17:31
Airport Washington Dulles International Airport (KIAD)
Time Latitude Longitude Altitude Speed Heading
2026-05-07 14:52 39.29974 -94.72153 1016 ft 0 kts 276°
2026-05-07 15:21 39.29972 -94.72126 1016 ft 4 kts 274°
2026-05-07 15:21 39.29969 -94.72092 1016 ft 4 kts 287°
2026-05-07 15:21 39.29956 -94.72075 1016 ft 3 kts 12°
2026-05-07 15:21 39.29967 -94.72072 1015 ft 4 kts
2026-05-07 15:22 39.29981 -94.72069 1015 ft 1 kts 14°
2026-05-07 15:26 39.29986 -94.72067 1015 ft 5 kts 14°
2026-05-07 15:26 39.30072 -94.72037 1014 ft 15 kts 14°
2026-05-07 15:27 39.30139 -94.72029 1013 ft 1 kts 327°
2026-05-07 15:27 39.30141 -94.72034 1013 ft 2 kts 295°
2026-05-07 15:27 39.30160 -94.72108 1014 ft 16 kts 289°
2026-05-07 15:27 39.30178 -94.72231 1014 ft 13 kts 283°
2026-05-07 15:28 39.30194 -94.72331 1014 ft 10 kts 278°
2026-05-07 15:28 39.30207 -94.72380 1014 ft 1 kts 326°
2026-05-07 15:28 39.30223 -94.72393 1014 ft 3 kts 327°
2026-05-07 15:28 39.30239 -94.72392 1014 ft 7 kts 12°
2026-05-07 15:29 39.30309 -94.72369 1013 ft 11 kts 15°
2026-05-07 15:29 39.30386 -94.72345 1012 ft 12 kts 11°
2026-05-07 15:29 39.30471 -94.72321 1011 ft 14 kts 12°
2026-05-07 15:29 39.30581 -94.72293 1009 ft 18 kts
2026-05-07 15:30 39.30720 -94.72279 1008 ft 22 kts 360°
2026-05-07 15:30 39.30826 -94.72252 1007 ft 10 kts 36°
2026-05-07 15:30 39.30889 -94.72203 1006 ft 12 kts 24°
2026-05-07 15:30 39.30976 -94.72175 1005 ft 14 kts 18°
2026-05-07 15:31 39.31077 -94.72154 1003 ft 15 kts 20°
2026-05-07 15:31 39.31191 -94.72108 1002 ft 19 kts 15°
2026-05-07 15:31 39.31327 -94.72069 1001 ft 22 kts 11°
2026-05-07 15:31 39.31484 -94.72024 999 ft 25 kts 10°
2026-05-07 15:32 39.31660 -94.71974 997 ft 27 kts 28°
2026-05-07 15:32 39.31832 -94.71919 995 ft 23 kts 13°
2026-05-07 15:32 39.31989 -94.71874 997 ft 23 kts 13°
2026-05-07 15:32 39.32150 -94.71829 994 ft 20 kts 358°
2026-05-07 15:33 39.32187 -94.71870 998 ft 5 kts 272°
2026-05-07 15:33 39.32197 -94.71993 992 ft 18 kts 280°
2026-05-07 15:33 39.32199 -94.72084 992 ft 4 kts 227°
2026-05-07 15:33 39.32175 -94.72094 997 ft 8 kts 193°
2026-05-07 15:34 39.31844 -94.72194 996 ft 96 kts 193°
2026-05-07 15:34 39.30909 -94.72466 1110 ft 171 kts 195°
2026-05-07 15:34 39.29641 -94.72826 2102 ft 194 kts 196°
2026-05-07 15:34 39.28332 -94.73206 3752 ft 184 kts 198°
2026-05-07 15:35 39.27084 -94.73482 5338 ft 182 kts 198°
2026-05-07 15:35 39.25907 -94.73726 6588 ft 156 kts 197°
2026-05-07 15:35 39.24876 -94.73912 7226 ft 140 kts 195°
2026-05-07 15:35 39.23919 -94.73846 7785 ft 147 kts 175°
2026-05-07 15:36 39.22936 -94.73466 8400 ft 147 kts 171°
2026-05-07 15:36 39.21949 -94.73041 8882 ft 160 kts 168°
2026-05-07 15:36 39.20889 -94.72311 9251 ft 186 kts 148°
2026-05-07 15:36 39.19956 -94.71027 9707 ft 207 kts 126°
2026-05-07 15:37 39.19340 -94.69268 10119 ft 226 kts 107°
2026-05-07 15:37 39.18955 -94.67249 10461 ft 246 kts 101°
2026-05-07 15:37 39.18614 -94.64920 10706 ft 274 kts 99°
2026-05-07 15:37 39.18252 -94.62472 11167 ft 300 kts 101°
2026-05-07 15:38 39.17766 -94.59620 11258 ft 340 kts 102°
2026-05-07 15:38 39.17209 -94.56527 11571 ft 366 kts 103°
2026-05-07 15:38 39.16602 -94.53262 12167 ft 382 kts 103°
2026-05-07 15:38 39.15976 -94.49938 12918 ft 393 kts 102°
2026-05-07 15:39 39.15334 -94.46484 13874 ft 400 kts 102°
2026-05-07 15:39 39.14691 -94.42979 14903 ft 403 kts 102°
2026-05-07 15:39 39.14050 -94.39466 16097 ft 402 kts 101°
2026-05-07 15:39 39.13425 -94.35990 17443 ft 397 kts 101°
2026-05-07 15:40 39.12813 -94.32509 18464 ft 402 kts 100°
2026-05-07 15:40 39.12225 -94.28945 19259 ft 409 kts 99°
2026-05-07 15:40 39.11655 -94.25331 20137 ft 415 kts 99°
2026-05-07 15:40 39.11085 -94.21652 20947 ft 422 kts 99°
2026-05-07 15:41 39.10516 -94.17929 21683 ft 430 kts 100°
2026-05-07 15:41 39.09946 -94.14127 22413 ft 435 kts 99°
2026-05-07 15:41 39.09527 -94.10247 23124 ft 440 kts 96°
2026-05-07 15:41 39.09098 -94.06318 23801 ft 446 kts 97°
2026-05-07 15:42 39.08705 -94.02342 24435 ft 450 kts 95°
2026-05-07 15:42 39.08412 -93.98315 25098 ft 454 kts 93°
2026-05-07 15:42 39.08182 -93.94260 25734 ft 459 kts 92°
2026-05-07 15:42 39.07958 -93.90134 26329 ft 464 kts 92°
2026-05-07 15:43 39.07713 -93.85981 26947 ft 468 kts 93°
2026-05-07 15:43 39.07443 -93.81782 27521 ft 473 kts 94°
2026-05-07 15:43 39.07161 -93.77563 28052 ft 478 kts 94°
2026-05-07 15:43 39.06882 -93.73350 28594 ft 482 kts 94°
2026-05-07 15:44 39.06595 -93.68959 29153 ft 486 kts 94°
2026-05-07 15:44 39.06312 -93.64603 29644 ft 490 kts 94°
2026-05-07 15:44 39.06028 -93.60257 30150 ft 494 kts 94°
2026-05-07 15:44 39.05735 -93.55809 30556 ft 499 kts 94°
2026-05-07 15:45 39.05439 -93.51348 30940 ft 503 kts 95°
2026-05-07 15:45 39.05139 -93.46850 31325 ft 507 kts 95°
2026-05-07 15:45 39.04836 -93.42312 31687 ft 511 kts 95°
2026-05-07 15:45 39.04528 -93.37737 32045 ft 515 kts 95°
2026-05-07 15:46 39.03902 -93.28526 32887 ft 518 kts 95°
2026-05-07 15:46 39.03588 -93.23932 33327 ft 519 kts 96°
2026-05-07 15:46 39.03271 -93.19309 33757 ft 519 kts 96°
2026-05-07 15:47 39.02950 -93.14675 34155 ft 521 kts 96°
2026-05-07 15:47 39.02633 -93.10116 34485 ft 521 kts 96°
2026-05-07 15:47 39.02310 -93.05478 34822 ft 522 kts 96°
2026-05-07 15:47 39.01980 -93.00763 35119 ft 523 kts 96°
2026-05-07 15:48 39.01656 -92.96162 35430 ft 524 kts 96°
2026-05-07 15:48 39.01325 -92.91495 35744 ft 524 kts 96°
2026-05-07 15:48 39.00982 -92.86868 36045 ft 524 kts 99°
2026-05-07 15:48 39.00163 -92.82286 36268 ft 522 kts 111°
2026-05-07 15:49 38.98905 -92.77949 36620 ft 518 kts 117°
2026-05-07 15:49 38.97471 -92.73687 36925 ft 518 kts 118°
2026-05-07 15:49 38.96042 -92.69451 37231 ft 518 kts 118°
2026-05-07 15:50 38.93278 -92.60718 37142 ft 538 kts 116°
2026-05-07 15:50 38.90492 -92.51728 37090 ft 544 kts 116°
2026-05-07 15:51 38.87677 -92.42713 37103 ft 544 kts 116°
2026-05-07 15:51 38.84856 -92.33720 37131 ft 544 kts 116°
2026-05-07 15:52 38.82022 -92.24724 37097 ft 545 kts 115°
2026-05-07 15:52 38.81059 -92.20023 37106 ft 552 kts 97°
2026-05-07 15:52 38.80927 -92.15107 37144 ft 553 kts 87°
2026-05-07 15:53 38.81591 -92.05285 37070 ft 551 kts 84°
2026-05-07 15:53 38.82081 -91.95471 37116 ft 553 kts 87°
2026-05-07 15:54 38.82309 -91.87288 37092 ft 553 kts 88°
2026-05-07 15:54 38.82606 -91.77406 37105 ft 554 kts 87°
2026-05-07 15:55 38.82934 -91.67547 37098 ft 554 kts 87°
2026-05-07 15:55 38.83246 -91.57681 37097 ft 554 kts 87°
2026-05-07 15:56 38.83545 -91.47802 37086 ft 554 kts 87°
2026-05-07 15:56 38.83835 -91.37966 37101 ft 554 kts 87°
2026-05-07 15:57 38.84105 -91.28594 37101 ft 554 kts 87°
2026-05-07 15:57 38.84379 -91.18734 37097 ft 554 kts 88°
2026-05-07 15:58 38.84649 -91.08856 37096 ft 554 kts 88°
2026-05-07 15:58 38.84908 -90.98974 37102 ft 554 kts 88°
2026-05-07 15:59 38.85158 -90.89108 37096 ft 554 kts 88°
2026-05-07 15:59 38.85400 -90.79228 37101 ft 554 kts 88°
2026-05-07 16:00 38.85636 -90.69353 37110 ft 554 kts 88°
2026-05-07 16:00 38.85862 -90.59486 37116 ft 554 kts 88°
2026-05-07 16:01 38.86098 -90.49619 37119 ft 554 kts 85°
2026-05-07 16:01 38.86742 -90.44772 37161 ft 551 kts 73°
2026-05-07 16:01 38.87828 -90.40131 37146 ft 549 kts 67°
2026-05-07 16:02 38.90451 -90.30906 37094 ft 548 kts 66°
2026-05-07 16:02 38.92848 -90.21615 37118 ft 550 kts 69°
2026-05-07 16:03 38.95123 -90.12221 37113 ft 550 kts 69°
2026-05-07 16:03 38.97438 -90.02930 37124 ft 550 kts 68°
2026-05-07 16:04 38.99774 -89.93562 37085 ft 551 kts 68°
2026-05-07 16:04 39.02087 -89.84204 37107 ft 551 kts 69°
2026-05-07 16:05 39.04392 -89.74832 37101 ft 551 kts 69°
2026-05-07 16:05 39.06704 -89.65408 37100 ft 551 kts 69°
2026-05-07 16:06 39.09003 -89.55999 37099 ft 551 kts 69°
2026-05-07 16:06 39.11294 -89.46586 37096 ft 551 kts 69°
2026-05-07 16:07 39.13569 -89.37195 37078 ft 551 kts 69°
2026-05-07 16:07 39.15849 -89.27756 37095 ft 552 kts 69°
2026-05-07 16:08 39.18114 -89.18343 37092 ft 553 kts 69°
2026-05-07 16:08 39.20379 -89.08880 37094 ft 553 kts 69°
2026-05-07 16:09 39.22636 -88.99418 37091 ft 553 kts 69°
2026-05-07 16:09 39.24891 -88.89927 37097 ft 553 kts 69°
2026-05-07 16:10 39.27136 -88.80442 37087 ft 554 kts 69°
2026-05-07 16:10 39.29364 -88.70957 37092 ft 554 kts 70°
2026-05-07 16:11 39.31582 -88.61426 37090 ft 554 kts 70°
2026-05-07 16:11 39.33798 -88.51894 37092 ft 554 kts 70°
2026-05-07 16:12 39.36012 -88.42335 37086 ft 555 kts 70°
2026-05-07 16:12 39.38216 -88.32775 37098 ft 555 kts 70°
2026-05-07 16:13 39.40410 -88.23219 37102 ft 555 kts 70°
2026-05-07 16:13 39.42587 -88.13695 37103 ft 556 kts 70°
2026-05-07 16:14 39.44773 -88.04103 37090 ft 557 kts 70°
2026-05-07 16:14 39.46941 -87.94536 37093 ft 556 kts 70°
2026-05-07 16:15 39.49119 -87.84893 37098 ft 557 kts 70°
2026-05-07 16:15 39.51280 -87.75282 37098 ft 557 kts 71°
2026-05-07 16:16 39.53441 -87.65650 37103 ft 559 kts 71°
2026-05-07 16:16 39.55592 -87.56021 37162 ft 559 kts 71°
2026-05-07 16:17 39.57748 -87.46326 37111 ft 557 kts 71°
2026-05-07 16:17 39.59893 -87.36645 37103 ft 558 kts 71°
2026-05-07 16:18 39.62018 -87.27006 37103 ft 559 kts 71°
2026-05-07 16:18 39.64146 -87.17311 37095 ft 559 kts 71°
2026-05-07 16:19 39.66268 -87.07602 37097 ft 559 kts 71°
2026-05-07 16:19 39.68380 -86.97892 37098 ft 559 kts 71°
2026-05-07 16:20 39.70491 -86.88150 37108 ft 562 kts 72°
2026-05-07 16:20 39.72591 -86.78414 37099 ft 561 kts 72°
2026-05-07 16:21 39.74685 -86.68657 37099 ft 561 kts 72°
2026-05-07 16:21 39.76769 -86.58905 37043 ft 560 kts 72°
2026-05-07 16:22 39.78833 -86.49210 37101 ft 562 kts 72°
2026-05-07 16:22 39.80905 -86.39415 37099 ft 560 kts 72°
2026-05-07 16:23 39.82116 -86.29407 37122 ft 563 kts 86°
2026-05-07 16:23 39.82530 -86.19263 37071 ft 561 kts 88°
2026-05-07 16:24 39.83044 -86.09143 37094 ft 562 kts 86°
2026-05-07 16:24 39.83677 -85.99006 37080 ft 562 kts 86°
2026-05-07 16:25 39.84261 -85.88862 37080 ft 562 kts 86°
2026-05-07 16:25 39.84820 -85.78732 37086 ft 562 kts 86°
2026-05-07 16:26 39.85379 -85.68587 37082 ft 562 kts 86°
2026-05-07 16:26 39.85930 -85.58444 37071 ft 562 kts 86°
2026-05-07 16:27 39.86473 -85.48291 37074 ft 562 kts 86°
2026-05-07 16:27 39.87005 -85.38148 37069 ft 563 kts 86°
2026-05-07 16:28 39.87530 -85.27987 37067 ft 563 kts 86°
2026-05-07 16:28 39.88046 -85.17817 37067 ft 563 kts 86°
2026-05-07 16:29 39.88553 -85.07652 37071 ft 562 kts 87°
2026-05-07 16:29 39.89049 -84.97558 37070 ft 564 kts 87°
2026-05-07 16:30 39.89540 -84.87310 37070 ft 563 kts 87°
2026-05-07 16:30 39.90021 -84.77117 37070 ft 564 kts 87°
2026-05-07 16:31 39.90494 -84.66947 37069 ft 563 kts 87°
2026-05-07 16:31 39.90955 -84.56778 37023 ft 560 kts 87°
2026-05-07 16:32 39.91404 -84.46702 37062 ft 562 kts 87°
2026-05-07 16:32 39.91853 -84.36535 37062 ft 561 kts 88°
2026-05-07 16:33 39.92289 -84.26426 37064 ft 561 kts 88°
2026-05-07 16:33 39.92709 -84.16330 37059 ft 561 kts 88°
2026-05-07 16:34 39.93121 -84.06239 37060 ft 561 kts 88°
2026-05-07 16:34 39.93530 -83.96041 37050 ft 561 kts 88°
2026-05-07 16:35 39.93930 -83.85841 37051 ft 562 kts 88°
2026-05-07 16:35 39.94316 -83.75750 37044 ft 562 kts 88°
2026-05-07 16:36 39.94696 -83.65567 37050 ft 562 kts 88°
2026-05-07 16:36 39.95070 -83.55392 37054 ft 562 kts 88°
2026-05-07 16:37 39.95433 -83.45213 37061 ft 566 kts 89°
2026-05-07 16:37 39.95728 -83.36717 37035 ft 564 kts 89°
2026-05-07 16:38 39.96076 -83.26521 37038 ft 564 kts 89°
2026-05-07 16:38 39.96411 -83.16326 37039 ft 564 kts 90°
2026-05-07 16:39 39.96593 -83.06096 37024 ft 566 kts 91°
2026-05-07 16:39 39.96794 -82.95847 37041 ft 566 kts 89°
2026-05-07 16:40 39.97170 -82.85602 37021 ft 566 kts 89°
2026-05-07 16:40 39.97502 -82.75352 37027 ft 567 kts 90°
2026-05-07 16:41 39.97798 -82.65062 37011 ft 568 kts 90°
2026-05-07 16:41 39.98094 -82.54789 37014 ft 568 kts 90°
2026-05-07 16:42 39.98382 -82.44505 37013 ft 567 kts 90°
2026-05-07 16:42 39.98662 -82.34210 37028 ft 571 kts 90°
2026-05-07 16:43 39.98932 -82.23876 37004 ft 570 kts 90°
2026-05-07 16:43 39.99194 -82.13589 36962 ft 564 kts 90°
2026-05-07 16:44 39.99441 -82.03405 37013 ft 566 kts 90°
2026-05-07 16:44 39.99683 -81.93159 37003 ft 565 kts 90°
2026-05-07 16:45 39.99915 -81.82922 37000 ft 565 kts 90°
2026-05-07 16:45 40.00137 -81.72696 37000 ft 564 kts 91°
2026-05-07 16:46 40.00353 -81.62462 37006 ft 566 kts 91°
2026-05-07 16:46 40.00559 -81.52186 36993 ft 566 kts 91°
2026-05-07 16:47 40.00760 -81.41906 36995 ft 567 kts 91°
2026-05-07 16:47 40.00959 -81.31682 36993 ft 567 kts 91°
2026-05-07 16:48 40.01150 -81.21332 37004 ft 570 kts 91°
2026-05-07 16:48 40.01304 -81.11015 36999 ft 568 kts 91°
2026-05-07 16:49 40.01445 -81.00697 36995 ft 568 kts 92°
2026-05-07 16:49 40.01582 -80.90448 36965 ft 568 kts 92°
2026-05-07 16:50 40.01059 -80.80195 37009 ft 555 kts 114°
2026-05-07 16:50 39.99541 -80.75686 36985 ft 535 kts 131°
2026-05-07 16:50 39.97466 -80.71736 37013 ft 524 kts 137°
2026-05-07 16:51 39.93192 -80.63988 36965 ft 530 kts 133°
2026-05-07 16:51 39.89303 -80.55786 36975 ft 534 kts 131°
2026-05-07 16:52 39.85446 -80.47537 36957 ft 533 kts 133°
2026-05-07 16:52 39.81550 -80.39420 36974 ft 534 kts 133°
2026-05-07 16:53 39.77609 -80.31217 36977 ft 534 kts 133°
2026-05-07 16:53 39.73675 -80.23036 36992 ft 534 kts 133°
2026-05-07 16:54 39.69734 -80.14861 36960 ft 533 kts 134°
2026-05-07 16:54 39.65782 -80.06689 36984 ft 534 kts 134°
2026-05-07 16:54 39.63849 -80.02675 36951 ft 516 kts 134°
2026-05-07 16:55 39.61989 -79.98790 36897 ft 496 kts 135°
2026-05-07 16:55 39.60208 -79.95087 37002 ft 472 kts 136°
2026-05-07 16:55 39.58486 -79.91542 36971 ft 461 kts 137°
2026-05-07 16:55 39.56734 -79.88020 37085 ft 470 kts 136°
2026-05-07 16:56 39.55235 -79.84095 37077 ft 503 kts 120°
2026-05-07 16:56 39.54255 -79.79678 37080 ft 515 kts 111°
2026-05-07 16:56 39.52899 -79.70627 37668 ft 518 kts 110°
2026-05-07 16:57 39.52137 -79.66036 36959 ft 524 kts 112°
2026-05-07 16:57 39.51309 -79.61442 36323 ft 524 kts 113°
2026-05-07 16:57 39.50453 -79.56869 35708 ft 523 kts 114°
2026-05-07 16:57 39.49595 -79.52299 35114 ft 522 kts 114°
2026-05-07 16:58 39.48753 -79.47726 34535 ft 523 kts 114°
2026-05-07 16:58 39.47924 -79.43117 33969 ft 526 kts 114°
2026-05-07 16:58 39.47096 -79.38493 33279 ft 530 kts 114°
2026-05-07 16:58 39.46248 -79.33850 32627 ft 529 kts 115°
2026-05-07 16:59 39.45396 -79.29231 31993 ft 527 kts 115°
2026-05-07 16:59 39.44545 -79.24613 31370 ft 525 kts 115°
2026-05-07 16:59 39.43700 -79.20026 30759 ft 524 kts 115°
2026-05-07 16:59 39.42860 -79.15462 30162 ft 525 kts 114°
2026-05-07 17:00 39.42049 -79.10863 29490 ft 525 kts 113°
2026-05-07 17:00 39.41255 -79.06273 28818 ft 523 kts 113°
2026-05-07 17:00 39.40469 -79.01730 28100 ft 515 kts 113°
2026-05-07 17:00 39.39688 -78.97242 27429 ft 508 kts 113°
2026-05-07 17:01 39.38911 -78.92820 26779 ft 500 kts 113°
2026-05-07 17:01 39.38144 -78.88485 26155 ft 491 kts 112°
2026-05-07 17:01 39.37380 -78.84235 25532 ft 483 kts 112°
2026-05-07 17:01 39.36621 -78.80045 24966 ft 475 kts 112°
2026-05-07 17:02 39.35871 -78.75914 24385 ft 468 kts 112°
2026-05-07 17:02 39.35137 -78.71836 23813 ft 464 kts 112°
2026-05-07 17:02 39.34403 -78.67787 23141 ft 459 kts 112°
2026-05-07 17:02 39.33679 -78.63801 22458 ft 454 kts 112°
2026-05-07 17:03 39.32963 -78.59856 21825 ft 447 kts 111°
2026-05-07 17:03 39.32258 -78.55976 21170 ft 439 kts 111°
2026-05-07 17:03 39.31568 -78.52164 20525 ft 433 kts 110°
2026-05-07 17:03 39.30886 -78.48408 19924 ft 427 kts 110°
2026-05-07 17:04 39.30216 -78.44705 19329 ft 420 kts 109°
2026-05-07 17:04 39.29561 -78.41063 18731 ft 414 kts 109°
2026-05-07 17:04 39.28900 -78.37511 18124 ft 406 kts 112°
2026-05-07 17:04 39.27756 -78.34233 17434 ft 389 kts 128°
2026-05-07 17:05 39.26293 -78.31431 16811 ft 376 kts 135°
2026-05-07 17:05 39.24680 -78.28755 16151 ft 370 kts 136°
2026-05-07 17:05 39.23156 -78.26143 15521 ft 368 kts 134°
2026-05-07 17:05 39.21670 -78.23441 14917 ft 364 kts 132°
2026-05-07 17:06 39.20277 -78.20782 14290 ft 360 kts 131°
2026-05-07 17:06 39.18899 -78.18099 13688 ft 357 kts 130°
2026-05-07 17:06 39.17532 -78.15452 13020 ft 354 kts 131°
2026-05-07 17:06 39.16167 -78.12844 12390 ft 350 kts 131°
2026-05-07 17:07 39.14804 -78.10268 11743 ft 346 kts 131°
2026-05-07 17:07 39.13450 -78.07722 11113 ft 343 kts 131°
2026-05-07 17:07 39.12123 -78.05219 10521 ft 341 kts 131°
2026-05-07 17:07 39.10785 -78.02688 9926 ft 337 kts 131°
2026-05-07 17:08 39.09474 -78.00204 9244 ft 334 kts 130°
2026-05-07 17:08 39.08175 -77.97757 8623 ft 331 kts 129°
2026-05-07 17:08 39.06869 -77.95309 7978 ft 327 kts 128°
2026-05-07 17:08 39.05575 -77.92909 7340 ft 326 kts 128°
2026-05-07 17:09 39.04291 -77.90527 6741 ft 324 kts 127°
2026-05-07 17:09 39.03034 -77.88152 6124 ft 318 kts 126°
2026-05-07 17:09 39.01804 -77.85800 5776 ft 307 kts 125°
2026-05-07 17:09 39.00667 -77.83622 5985 ft 289 kts 126°
2026-05-07 17:10 38.99527 -77.81473 5964 ft 291 kts 126°
2026-05-07 17:10 38.98380 -77.79331 5964 ft 292 kts 126°
2026-05-07 17:10 38.97231 -77.77179 5976 ft 291 kts 124°
2026-05-07 17:10 38.96417 -77.74796 5983 ft 294 kts 104°
2026-05-07 17:11 38.96022 -77.72228 6023 ft 294 kts 98°
2026-05-07 17:11 38.95784 -77.69606 5942 ft 296 kts 94°
2026-05-07 17:11 38.95600 -77.67000 5970 ft 293 kts 95°
2026-05-07 17:11 38.95330 -77.64407 5968 ft 294 kts 105°
2026-05-07 17:12 38.94364 -77.62138 5973 ft 291 kts 136°
2026-05-07 17:12 38.92702 -77.60750 6008 ft 285 kts 159°
2026-05-07 17:12 38.90859 -77.59820 5970 ft 283 kts 165°
2026-05-07 17:12 38.88997 -77.59059 5950 ft 279 kts 167°
2026-05-07 17:13 38.87160 -77.58275 5955 ft 276 kts 165°
2026-05-07 17:13 38.85398 -77.57520 5897 ft 256 kts 174°
2026-05-07 17:13 38.83702 -77.57345 5872 ft 237 kts 184°
2026-05-07 17:13 38.82117 -77.57350 6015 ft 220 kts 188°
2026-05-07 17:14 38.80554 -77.57456 6035 ft 229 kts 190°
2026-05-07 17:14 38.78968 -77.57595 6017 ft 227 kts 190°
2026-05-07 17:14 38.77393 -77.57708 6026 ft 226 kts 188°
2026-05-07 17:14 38.75850 -77.57786 6092 ft 223 kts 188°
2026-05-07 17:15 38.74269 -77.57845 6085 ft 228 kts 187°
2026-05-07 17:15 38.72688 -77.57908 5957 ft 227 kts 188°
2026-05-07 17:15 38.71113 -77.57973 5980 ft 227 kts 188°
2026-05-07 17:15 38.69536 -77.58052 5981 ft 228 kts 188°
2026-05-07 17:16 38.67925 -77.58137 5984 ft 228 kts 187°
2026-05-07 17:16 38.66400 -77.58220 5983 ft 227 kts 187°
2026-05-07 17:16 38.64820 -77.58304 5982 ft 228 kts 186°
2026-05-07 17:16 38.63238 -77.58384 5985 ft 228 kts 186°
2026-05-07 17:17 38.61652 -77.58454 5977 ft 228 kts 186°
2026-05-07 17:17 38.60119 -77.58581 5942 ft 210 kts 198°
2026-05-07 17:17 38.58975 -77.59504 5866 ft 192 kts 238°
2026-05-07 17:17 38.58691 -77.61072 6117 ft 186 kts 279°
2026-05-07 17:18 38.59322 -77.62557 6143 ft 194 kts 307°
2026-05-07 17:18 38.59980 -77.64034 5973 ft 193 kts 281°
2026-05-07 17:18 38.59761 -77.65654 5958 ft 188 kts 240°
2026-05-07 17:18 38.58702 -77.66682 6038 ft 204 kts 202°
2026-05-07 17:19 38.57268 -77.66633 6040 ft 216 kts 165°
2026-05-07 17:19 38.56072 -77.65439 5960 ft 225 kts 126°
2026-05-07 17:19 38.55647 -77.63541 5997 ft 226 kts 90°
2026-05-07 17:19 38.55692 -77.61515 6018 ft 229 kts 89°
2026-05-07 17:20 38.55716 -77.59480 5964 ft 227 kts 89°
2026-05-07 17:20 38.55743 -77.57470 5979 ft 226 kts 89°
2026-05-07 17:20 38.55773 -77.55486 5978 ft 227 kts 89°
2026-05-07 17:20 38.55806 -77.53451 5979 ft 226 kts 88°
2026-05-07 17:21 38.55835 -77.51442 5973 ft 226 kts 88°
2026-05-07 17:21 38.55867 -77.49461 5997 ft 227 kts 89°
2026-05-07 17:21 38.55903 -77.47446 5987 ft 226 kts 88°
2026-05-07 17:21 38.55939 -77.45443 5981 ft 226 kts 86°
2026-05-07 17:22 38.56348 -77.43532 5986 ft 222 kts 64°
2026-05-07 17:22 38.56954 -77.41714 6034 ft 226 kts 65°
2026-05-07 17:22 38.57567 -77.39824 5790 ft 227 kts 65°
2026-05-07 17:22 38.58452 -77.38248 5485 ft 213 kts 33°
2026-05-07 17:23 38.59665 -77.37245 5201 ft 206 kts 21°
2026-05-07 17:23 38.61010 -77.36907 4936 ft 194 kts 354°
2026-05-07 17:23 38.62287 -77.37194 5039 ft 187 kts 339°
2026-05-07 17:23 38.63551 -77.37692 5034 ft 193 kts 339°
2026-05-07 17:24 38.64849 -77.38193 4708 ft 193 kts 339°
2026-05-07 17:24 38.65686 -77.38521 4519 ft 187 kts 340°
2026-05-07 17:24 38.66905 -77.39045 4225 ft 184 kts 335°
2026-05-07 17:24 38.68077 -77.39697 3924 ft 185 kts 335°
2026-05-07 17:25 38.69227 -77.40365 3943 ft 182 kts 334°
2026-05-07 17:25 38.70394 -77.41035 4005 ft 186 kts 334°
2026-05-07 17:25 38.71582 -77.41712 3970 ft 187 kts 334°
2026-05-07 17:25 38.72770 -77.42396 3770 ft 187 kts 335°
2026-05-07 17:26 38.73922 -77.43156 3585 ft 186 kts 329°
2026-05-07 17:26 38.75022 -77.43902 3375 ft 174 kts 348°
2026-05-07 17:26 38.76171 -77.43887 3222 ft 158 kts
2026-05-07 17:26 38.77240 -77.43835 3036 ft 151 kts 358°
2026-05-07 17:27 38.78260 -77.43872 2847 ft 144 kts
2026-05-07 17:27 38.79230 -77.43842 2681 ft 134 kts
2026-05-07 17:27 38.80160 -77.43825 2506 ft 137 kts
2026-05-07 17:27 38.81124 -77.43816 2345 ft 140 kts
2026-05-07 17:28 38.82107 -77.43800 2154 ft 141 kts
2026-05-07 17:28 38.83079 -77.43785 1963 ft 139 kts
2026-05-07 17:28 38.84037 -77.43770 1990 ft 140 kts
2026-05-07 17:28 38.85026 -77.43754 1831 ft 144 kts
2026-05-07 17:29 38.86011 -77.43740 1622 ft 141 kts
2026-05-07 17:29 38.86992 -77.43725 1430 ft 141 kts
2026-05-07 17:29 38.87973 -77.43711 1229 ft 141 kts
2026-05-07 17:29 38.88963 -77.43701 1032 ft 142 kts
2026-05-07 17:30 38.90066 -77.43735 935 ft 181 kts 359°
2026-05-07 17:30 38.91348 -77.43730 717 ft 172 kts
2026-05-07 17:30 38.92486 -77.43648 409 ft 158 kts
2026-05-07 17:30 38.93475 -77.43630 302 ft 127 kts
2026-05-07 17:31 38.94240 -77.43613 291 ft 89 kts 358°
2026-05-07 17:31 38.94582 -77.43773 290 ft 21 kts 332°
2026-05-07 17:31 38.94642 -77.43816 288 ft 0 kts 328°
2026-05-07 17:32 38.94646 -77.43819 288 ft 3 kts 328°
2026-05-07 17:32 38.94689 -77.43855 286 ft 11 kts 324°
2026-05-07 17:32 38.94719 -77.43935 288 ft 0 kts 279°
2026-05-07 17:33 38.94719 -77.43936 288 ft 1 kts 278°
2026-05-07 17:33 38.94721 -77.43950 289 ft 5 kts 276°
2026-05-07 17:33 38.94722 -77.44005 290 ft 7 kts 268°
2026-05-07 17:33 38.94721 -77.44079 292 ft 10 kts 269°
2026-05-07 17:34 38.94719 -77.44176 293 ft 6 kts 271°
2026-05-07 17:34 38.94720 -77.44221 294 ft 7 kts 271°
2026-05-07 17:34 38.94740 -77.44268 296 ft 7 kts 330°
2026-05-07 17:34 38.94759 -77.44270 296 ft 4 kts
2026-05-07 17:35 38.94805 -77.44261 295 ft 9 kts 11°
2026-05-07 17:35 38.94825 -77.44247 295 ft 0 kts 51°